SL-8 DEB, 2647

Orbit data source: Space-Track

SL-8 DEB, 2647 is space debris in LEO originally from a launch on Sat, 18 Sep 1965 UTC launched from the Tyuratam Missile And Space Complex (TTMTR). Debris objects in space refer to the collection of defunct objects orbiting the Earth. Examples of debris include non-operational satellites, rocket bodies, and fragments generated from explosions, collisions, or faulty payload assembly.

Loading next visibility...
Identifier
2647, 1965-073L
Orbit
LEO
Country
Flag of CISCIS
Related business
Manufacturer
Unknown
Mission
Spacecraft
Bus & Motor
Unknown
Mass
Unknown
Launch date (UTC)
1965-09-18 (61 years ago)
Launch vehicle
Unknown
Launch site
Tyuratam Missile And Space Complex (TTMTR)
Object type
Payload
Rocket body
Debris
Shape & HBR
Unknown shape, 0.1 m
Radar Cross Section
Medium (>0.1 m² and <1 m²)

Expand to show TLE details & history
Last TLE update: 1 day ago

TLE from 1 day ago
0 SL-8 DEB
1 02647U 65073L   26174.16911190 -.00000021  00000-0  49772-3 0  9994
2 02647  56.0614 172.6995 0187097  74.2761   0.9055 12.43707678117374
Epoch: 2026-06-23T04:03Z
TLE epoch observation values (Epoch: 2026-06-23T04:03:31.268Z)
Latitude
53.46959°
Longitude
-94.85066°
Altitude
1,350.741 km
Speed
7.255 km/s
True Right ascension
15h 49m 29s
True Declination
53° 19' 03"
Sunlit
Object was in daylight at epoch
Visualization orbit readout
Latitude
Unknown
Longitude
Unknown
Altitude
Unknown
Speed
Unknown
Apparent Right ascension
Unknown
Apparent Declination
Unknown
Sunlit
N/A
Visualization observer readout
Local Sidereal Time
16:41:55
Azimuth
Unknown
Elevation
Unknown
Doppler factor
Unknown
Orbital elements
Apogee altitude
1,637.973 km
Perigee altitude
1,343.524 km
Semi-major axis
7,868.885 km
Eccentricity
0.01871
Inclination
56.0614°
RAAN
172.6995°
Arg. of periapsis
74.2761°
True anomaly
0.94019°
Mean anomaly
0.9055°
Eccentric anomaly
0.92276°
Mean motion
3.10938 °/min
Orbital period
115.78 mins
BSTAR
0.00049772
Loading maneuver chart data...
Computing Atmospheric mass density...
Loading historical data...
Loading historical data...
Loading historical data...
Loading historical data...
Loading historical data...
Loading historical data...
Loading historical data...

Documentation

Showing up to 5 results
|